When you browse on this site, cookies collect data to enhance your experience and personalize the content and advertising you see.
Visit our Privacy Policy to learn more. By continuing to use the site, you agree to this use of cookies and data.

Hourly Weather Grandola

Today, 24 September, Thursday

Time Temperature Precipitation Wind Pressure Humidity
00:00 +20°C° 0 mm 1 mps 753 mmHg 93%
01:00 +20°C° 0 mm 1 mps 753 mmHg 93%
02:00 +18°C° 0 mm 0 mps 753 mmHg 94%
03:00 +20°C° 0 mm 1 mps 753 mmHg 93%
04:00 +20°C° 0 mm 1 mps 754 mmHg 92%
05:00 +21°C° 0 mm 1 mps 754 mmHg 91%
06:00 +21°C° 0.2 mm 1 mps 754 mmHg 87%
07:00 +22°C° 0.2 mm 1 mps 754 mmHg 83%
08:00 +23°C° 0.2 mm 1 mps 755 mmHg 79%
09:00 +24°C° 0 mm 2 mps 755 mmHg 72%
10:00 +26°C° 0 mm 2 mps 755 mmHg 64%
11:00 +27°C° 0 mm 3 mps 755 mmHg 57%
12:00 +27°C° 0 mm 3 mps 755 mmHg 59%
13:00 +26°C° 0 mm 4 mps 755 mmHg 62%
14:00 +26°C° 0 mm 4 mps 755 mmHg 64%
15:00 +25°C° 0 mm 4 mps 755 mmHg 64%
16:00 +25°C° 0 mm 4 mps 756 mmHg 64%
17:00 +23°C° 0 mm 4 mps 756 mmHg 64%
18:00 +22°C° 0 mm 4 mps 756 mmHg 65%
19:00 +21°C° 0 mm 4 mps 757 mmHg 66%
20:00 +20°C° 0 mm 4 mps 758 mmHg 67%
21:00 +19°C° 0 mm 4 mps 758 mmHg 67%
22:00 +18°C° 0 mm 4 mps 758 mmHg 68%
23:00 +18°C° 0 mm 4 mps 759 mmHg 69%

Tomorrow, 25 September, Friday

Time Temperature Precipitation Wind Pressure Humidity
00:00 +17°C° 0 mm 4 mps 759 mmHg 72%
01:00 +15°C° 0 mm 4 mps 759 mmHg 74%
02:00 +15°C° 0 mm 4 mps 759 mmHg 77%
03:00 +15°C° 0 mm 4 mps 759 mmHg 80%
04:00 +14°C° 0 mm 4 mps 759 mmHg 82%
05:00 +14°C° 0 mm 3 mps 759 mmHg 85%
06:00 +15°C° 0 mm 4 mps 760 mmHg 77%
07:00 +17°C° 0 mm 5 mps 760 mmHg 69%
08:00 +19°C° 0 mm 6 mps 761 mmHg 62%
09:00 +20°C° 0 mm 6 mps 761 mmHg 54%
10:00 +22°C° 0 mm 6 mps 761 mmHg 46%
11:00 +23°C° 0 mm 5 mps 761 mmHg 39%
12:00 +25°C° 0 mm 5 mps 761 mmHg 37%
13:00 +25°C° 0 mm 5 mps 760 mmHg 35%
14:00 +26°C° 0 mm 6 mps 760 mmHg 33%
15:00 +25°C° 0 mm 5 mps 760 mmHg 35%
16:00 +23°C° 0 mm 5 mps 760 mmHg 38%
17:00 +22°C° 0 mm 5 mps 760 mmHg 40%
18:00 +20°C° 0 mm 5 mps 760 mmHg 47%
19:00 +17°C° 0 mm 5 mps 761 mmHg 54%
20:00 +16°C° 0 mm 6 mps 761 mmHg 60%
21:00 +15°C° 0 mm 5 mps 761 mmHg 64%
22:00 +14°C° 0 mm 5 mps 761 mmHg 67%
23:00 +14°C° 0 mm 4 mps 761 mmHg 71%

Day after tomorrow, 26 September, Saturday

Time Temperature Precipitation Wind Pressure Humidity
00:00 +13°C° 0 mm 4 mps 760 mmHg 72%
01:00 +13°C° 0 mm 3 mps 760 mmHg 73%
02:00 +13°C° 0 mm 3 mps 759 mmHg 74%
03:00 +12°C° 0 mm 3 mps 759 mmHg 74%
04:00 +12°C° 0 mm 3 mps 759 mmHg 73%
05:00 +13°C° 0 mm 2 mps 759 mmHg 73%
06:00 +14°C° 0 mm 3 mps 760 mmHg 64%
07:00 +17°C° 0 mm 3 mps 760 mmHg 55%
08:00 +19°C° 0 mm 3 mps 760 mmHg 46%
09:00 +21°C° 0 mm 3 mps 760 mmHg 40%
10:00 +24°C° 0 mm 3 mps 760 mmHg 33%
11:00 +26°C° 0 mm 3 mps 759 mmHg 27%
12:00 +26°C° 0 mm 4 mps 759 mmHg 26%
13:00 +27°C° 0 mm 4 mps 758 mmHg 25%
14:00 +28°C° 0 mm 4 mps 758 mmHg 24%
15:00 +27°C° 0 mm 4 mps 757 mmHg 27%
16:00 +25°C° 0 mm 4 mps 757 mmHg 29%
17:00 +23°C° 0 mm 4 mps 757 mmHg 32%
18:00 +22°C° 0 mm 4 mps 757 mmHg 37%
19:00 +20°C° 0 mm 4 mps 757 mmHg 42%
20:00 +19°C° 0 mm 4 mps 758 mmHg 47%
21:00 +18°C° 0 mm 4 mps 757 mmHg 53%
22:00 +17°C° 0 mm 4 mps 757 mmHg 58%
23:00 +15°C° 0 mm 4 mps 757 mmHg 64%

27 September, Sunday

Time Temperature Precipitation Wind Pressure Humidity
00:00 +15°C° 0 mm 4 mps 757 mmHg 68%
01:00 +15°C° 0 mm 4 mps 756 mmHg 72%
02:00 +14°C° 0 mm 4 mps 756 mmHg 76%
03:00 +14°C° 0 mm 4 mps 756 mmHg 80%
04:00 +14°C° 0 mm 3 mps 756 mmHg 84%
05:00 +13°C° 0 mm 3 mps 756 mmHg 87%
06:00 +16°C° 0 mm 3 mps 756 mmHg 79%
07:00 +17°C° 0 mm 4 mps 756 mmHg 71%
08:00 +19°C° 0 mm 4 mps 756 mmHg 62%
09:00 +21°C° 0 mm 3 mps 756 mmHg 53%
10:00 +24°C° 0 mm 3 mps 756 mmHg 44%
11:00 +27°C° 0 mm 3 mps 755 mmHg 35%
12:00 +27°C° 0 mm 3 mps 755 mmHg 34%
13:00 +28°C° 0 mm 3 mps 754 mmHg 33%
14:00 +29°C° 0 mm 4 mps 754 mmHg 32%
15:00 +28°C° 0 mm 4 mps 754 mmHg 37%
16:00 +27°C° 0 mm 5 mps 754 mmHg 43%
17:00 +25°C° 0 mm 5 mps 754 mmHg 48%
18:00 +23°C° 0 mm 5 mps 754 mmHg 54%
19:00 +21°C° 0 mm 5 mps 754 mmHg 60%
20:00 +20°C° 0 mm 5 mps 754 mmHg 66%
21:00 +19°C° 0 mm 5 mps 754 mmHg 68%
22:00 +18°C° 0 mm 4 mps 754 mmHg 70%
23:00 +17°C° 0 mm 4 mps 754 mmHg 73%

28 September, Monday

Time Temperature Precipitation Wind Pressure Humidity
00:00 +17°C° 0 mm 4 mps 754 mmHg 75%
01:00 +16°C° 0 mm 3 mps 753 mmHg 77%
02:00 +16°C° 0 mm 3 mps 753 mmHg 79%
03:00 +16°C° 0 mm 3 mps 753 mmHg 81%
04:00 +14°C° 0 mm 3 mps 753 mmHg 82%
05:00 +14°C° 0 mm 3 mps 753 mmHg 84%
06:00 +17°C° 0 mm 3 mps 753 mmHg 77%
07:00 +18°C° 0 mm 3 mps 754 mmHg 69%
08:00 +20°C° 0 mm 3 mps 754 mmHg 62%
09:00 +22°C° 0 mm 3 mps 754 mmHg 54%
10:00 +25°C° 0 mm 3 mps 754 mmHg 45%
11:00 +28°C° 0 mm 2 mps 754 mmHg 37%
12:00 +28°C° 0 mm 3 mps 753 mmHg 36%
13:00 +29°C° 0 mm 3 mps 753 mmHg 34%
14:00 +29°C° 0 mm 3 mps 752 mmHg 33%
15:00 +28°C° 0 mm 3 mps 752 mmHg 36%
16:00 +27°C° 0 mm 3 mps 753 mmHg 39%
17:00 +26°C° 0 mm 4 mps 753 mmHg 42%
18:00 +25°C° 0 mm 4 mps 753 mmHg 48%
19:00 +22°C° 0 mm 4 mps 753 mmHg 54%
20:00 +21°C° 0 mm 4 mps 753 mmHg 60%
21:00 +20°C° 0 mm 3 mps 753 mmHg 63%
22:00 +19°C° 0 mm 3 mps 753 mmHg 65%
23:00 +19°C° 0 mm 3 mps 753 mmHg 68%

29 September, Tuesday

Time Temperature Precipitation Wind Pressure Humidity
00:00 +18°C° 0 mm 3 mps 753 mmHg 69%
01:00 +18°C° 0 mm 3 mps 753 mmHg 70%
02:00 +18°C° 0 mm 2 mps 752 mmHg 72%
03:00 +17°C° 0 mm 2 mps 752 mmHg 73%
04:00 +17°C° 0 mm 2 mps 752 mmHg 74%
05:00 +17°C° 0 mm 2 mps 753 mmHg 75%
06:00 +20°C° 0 mm 1 mps 753 mmHg 67%
07:00 +22°C° 0 mm 1 mps 753 mmHg 58%
08:00 +24°C° 0 mm 1 mps 753 mmHg 49%
09:00 +26°C° 0 mm 1 mps 753 mmHg 43%
10:00 +28°C° 0 mm 2 mps 753 mmHg 37%
11:00 +30°C° 0 mm 2 mps 753 mmHg 30%
12:00 +30°C° 0 mm 2 mps 753 mmHg 31%
13:00 +30°C° 0 mm 3 mps 753 mmHg 32%
14:00 +30°C° 0 mm 3 mps 752 mmHg 32%
15:00 +28°C° 0 mm 4 mps 753 mmHg 39%
16:00 +27°C° 0 mm 4 mps 753 mmHg 45%
17:00 +25°C° 0 mm 4 mps 753 mmHg 51%
18:00 +23°C° 0 mm 4 mps 753 mmHg 57%
19:00 +21°C° 0 mm 4 mps 754 mmHg 64%
20:00 +20°C° 0 mm 4 mps 754 mmHg 70%
21:00 +19°C° 0 mm 4 mps 754 mmHg 76%
22:00 +18°C° 0 mm 4 mps 754 mmHg 82%
23:00 +17°C° 0 mm 4 mps 754 mmHg 89%
Show more